N7NKE Weather Reports


Display with metric or nautical units.
time (UTC)temp
F
wind
direction
speed
MPH
gust
MPH
rain 1hr
in
rain 24hr
in
rain mn
in
humidity
%
barometer
mb
20260508050005 61 336 3.0 5.0 0.00 0.00 0.00 65 1016.6
20260508045504 61 326 2.0 5.0 0.00 0.00 0.00 65 1016.6
20260508045004 61 324 2.0 5.0 0.00 0.00 0.00 65 1016.6
20260508044505 61 327 2.0 3.0 0.00 0.00 0.00 65 1016.6
20260508043504 62 339 2.0 5.0 0.00 0.00 0.00 64 1016.5
20260508043004 62 332 2.0 6.0 0.00 0.00 0.00 64 1016.7
20260508042504 62 330 3.0 5.0 0.00 0.00 0.00 64 1016.6
20260508042004 62 342 3.0 5.0 0.00 0.00 0.00 64 1016.5
20260508041504 62 333 5.0 7.0 0.00 0.00 0.00 63 1016.5
20260508041004 62 349 3.0 7.0 0.00 0.00 0.00 64 1016.4
20260508040504 62 351 3.0 5.0 0.00 0.00 0.00 64 1016.3
20260508034505 62 323 1.0 2.0 0.00 0.00 0.00 66 1016.1
20260508034004 62 296 0.0 2.0 0.00 0.00 0.00 65 1016.1
20260508033504 63 296 1.0 2.0 0.00 0.00 0.00 64 1016.0
20260508033005 63 321 1.0 2.0 0.00 0.00 0.00 64 1015.9
20260508032504 63 340 1.0 2.0 0.00 0.00 0.00 63 1015.9
20260508032004 63 315 1.0 2.0 0.00 0.00 0.00 64 1015.8
20260508031005 65 294 1.0 2.0 0.00 0.00 0.00 64 1015.7
20260508030504 65 294 1.0 2.0 0.00 0.00 0.00 63 1015.7
20260508030004 66 293 1.0 2.0 0.00 0.00 0.00 62 1015.6
20260508025505 66 333 0.0 2.0 0.00 0.00 0.00 63 1015.6
20260508024505 67 333 0.0 2.0 0.00 0.00 0.00 64 1015.5
20260508024004 68 256 1.0 1.0 0.00 0.00 0.00 61 1015.5
20260508023504 69 246 0.0 1.0 0.00 0.00 0.00 64 1015.5
20260508022504 70 246 1.0 2.0 0.00 0.00 0.00 55 1015.6
20260508022005 71 220 0.0 2.0 0.00 0.00 0.00 57 1015.6
20260508021504 71 220 0.0 2.0 0.00 0.00 0.00 55 1015.6
20260508021004 71 232 2.0 3.0 0.00 0.00 0.00 53 1015.6
20260508020504 71 244 1.0 2.0 0.00 0.00 0.00 51 1015.6
20260508020004 71 64 0.0 2.0 0.00 0.00 0.00 52 1015.6
20260508015504 72 67 1.0 1.0 0.00 0.00 0.00 52 1015.7
20260508015005 72 53 1.0 2.0 0.00 0.00 0.00 51 1015.7
20260508014504 72 275 1.0 2.0 0.00 0.00 0.00 49 1015.6
20260508013504 73 83 2.0 3.0 0.00 0.00 0.00 47 1015.8
20260508013005 74 122 2.0 3.0 0.00 0.00 0.00 48 1015.8
20260508012504 74 181 1.0 2.0 0.00 0.00 0.00 49 1015.9
20260508011504 73 223 2.0 2.0 0.00 0.00 0.00 48 1016.1
20260508011004 73 207 1.0 2.0 0.00 0.00 0.00 48 1016.1
20260508010503 72 254 1.0 1.0 0.00 0.00 0.00 49 1016.2
20260508010004 71 310 1.0 5.0 0.00 0.00 0.00 52 1016.2
20260508005504 71 84 2.0 3.0 0.00 0.00 0.00 52 1016.2
20260508005005 71 9 2.0 3.0 0.00 0.00 0.00 54 1016.2
20260508004505 71 359 1.0 2.0 0.00 0.00 0.00 52 1016.2
20260508004004 71 44 1.0 2.0 0.00 0.00 0.00 53 1016.2
20260508003504 71 50 2.0 3.0 0.00 0.00 0.00 53 1016.3
20260508003005 71 11 1.0 2.0 0.00 0.00 0.00 54 1016.3
20260508001004 71 46 1.0 3.0 0.00 0.00 0.00 52 1016.5
20260508000504 71 68 4.0 8.0 0.00 0.00 0.00 53 1016.5
20260508000004 71 39 2.0 3.0 0.00 0.00 0.00 53 1016.5
20260507235504 70 15 1.0 2.0 0.00 0.00 0.00 53 1016.5
20260507235004 70 24 2.0 3.0 0.00 0.00 0.00 52 1016.5
20260507234504 70 26 2.0 3.0 0.00 0.00 0.00 53 1016.5
20260507234004 69 64 2.0 3.0 0.00 0.00 0.00 53 1016.6
20260507233505 69 355 2.0 6.0 0.00 0.00 0.00 54 1016.7
20260507233007 69 47 3.0 5.0 0.00 0.00 0.00 55 1016.7
20260507232504 69 22 1.0 2.0 0.00 0.00 0.00 56 1016.8
20260507232006 69 18 1.0 2.0 0.00 0.00 0.00 54 1016.9
20260507231507 69 0 2.0 3.0 0.00 0.00 0.00 54 1016.9
20260507231005 69 5 2.0 6.0 0.00 0.00 0.00 55 1017.0
20260507225505 69 66 2.0 5.0 0.00 0.00 0.00 55 1017.3
20260507225005 68 62 2.0 7.0 0.00 0.00 0.00 52 1017.4
20260507224507 68 8 2.0 3.0 0.00 0.00 0.00 52 1017.5
20260507224005 68 338 2.0 3.0 0.00 0.00 0.00 55 1017.6
20260507223006 68 79 2.0 3.0 0.00 0.00 0.00 52 1017.7
20260507222505 68 68 1.0 5.0 0.00 0.00 0.00 53 1017.8
20260507222005 68 183 4.0 8.0 0.00 0.00 0.00 55 1017.8
20260507221505 67 91 3.0 8.0 0.00 0.00 0.00 53 1017.8
20260507221005 67 108 2.0 5.0 0.00 0.00 0.00 52 1018.0
20260507220505 67 31 1.0 5.0 0.00 0.00 0.00 55 1018.0
20260507220006 67 83 2.0 5.0 0.00 0.00 0.00 56 1018.1
20260507215505 66 36 1.0 3.0 0.00 0.00 0.00 55 1018.2
20260507215005 66 7 2.0 2.0 0.00 0.00 0.00 56 1018.2
20260507214505 66 349 3.0 8.0 0.00 0.00 0.00 55 1018.3
20260507214005 66 58 1.0 6.0 0.00 0.00 0.00 55 1018.3
20260507213505 66 73 2.0 6.0 0.00 0.00 0.00 56 1018.3
20260507213005 65 24 1.0 2.0 0.00 0.00 0.00 56 1018.4
20260507212505 65 314 1.0 3.0 0.00 0.00 0.00 56 1018.4
20260507212005 65 13 3.0 6.0 0.00 0.00 0.00 56 1018.5
20260507211505 64 13 1.0 6.0 0.00 0.00 0.00 57 1018.5
20260507211005 64 348 3.0 5.0 0.00 0.00 0.00 57 1018.6
20260507210505 64 60 3.0 6.0 0.00 0.00 0.00 57 1018.6
20260507205506 64 31 3.0 5.0 0.00 0.00 0.00 58 1018.8
20260507205006 64 334 2.0 5.0 0.00 0.00 0.00 62 1018.8
20260507204506 63 8 1.0 5.0 0.00 0.00 0.00 57 1018.8
20260507204005 64 2 2.0 8.0 0.00 0.00 0.00 58 1018.9
20260507203506 64 36 3.0 6.0 0.00 0.00 0.00 60 1019.0
20260507203006 63 21 3.0 6.0 0.00 0.00 0.00 59 1019.0
20260507202505 63 9 2.0 5.0 0.00 0.00 0.00 58 1019.1
20260507202005 63 6 3.0 6.0 0.00 0.00 0.00 60 1019.2
20260507201505 62 2 2.0 3.0 0.00 0.00 0.00 60 1019.3
20260507201005 63 50 3.0 5.0 0.00 0.00 0.00 60 1019.3
20260507200505 62 47 2.0 7.0 0.00 0.00 0.00 60 1019.4
20260507200005 62 72 2.0 8.0 0.00 0.00 0.00 60 1019.5
20260507195506 62 4 2.0 8.0 0.00 0.00 0.00 59 1019.5
20260507195005 62 77 5.0 9.0 0.00 0.00 0.00 58 1019.6
20260507194505 62 49 1.0 3.0 0.00 0.00 0.00 61 1019.7
20260507194005 62 9 2.0 8.0 0.00 0.00 0.00 60 1019.6
20260507193006 61 67 2.0 7.0 0.00 0.00 0.00 64 1019.8
20260507192506 60 29 2.0 8.0 0.00 0.00 0.00 62 1019.7
20260507192005 60 349 2.0 5.0 0.00 0.00 0.00 61 1019.9
20260507191505 61 52 4.0 9.0 0.00 0.00 0.00 61 1020.0
20260507191005 61 124 3.0 7.0 0.00 0.00 0.00 60 1019.9
20260507190505 60 119 5.0 9.0 0.00 0.00 0.00 61 1020.0
20260507190006 61 344 2.0 8.0 0.00 0.00 0.00 63 1020.0
20260507185505 61 84 3.0 8.0 0.00 0.00 0.00 64 1020.0
20260507185005 61 5 1.0 8.0 0.00 0.00 0.00 61 1020.1
20260507184505 61 90 3.0 7.0 0.00 0.00 0.00 61 1020.1
20260507184005 60 147 4.0 9.0 0.00 0.00 0.00 62 1020.1
20260507183505 60 65 2.0 6.0 0.00 0.00 0.00 61 1020.2
20260507183006 60 41 2.0 9.0 0.00 0.00 0.00 59 1020.3
20260507182504 60 145 4.0 9.0 0.00 0.00 0.00 60 1020.3
20260507181505 58 307 2.0 3.0 0.00 0.00 0.00 66 1020.4
20260507181005 58 341 2.0 3.0 0.00 0.00 0.00 66 1020.4
20260507180504 57 338 1.0 3.0 0.00 0.00 0.00 68 1020.5
20260507180005 57 335 2.0 2.0 0.00 0.00 0.00 67 1020.5
20260507175505 58 15 2.0 3.0 0.00 0.00 0.00 67 1020.5
20260507175005 58 30 1.0 2.0 0.00 0.00 0.00 65 1020.6
20260507174505 58 351 2.0 6.0 0.00 0.00 0.00 66 1020.6
20260507174005 58 44 2.0 8.0 0.00 0.00 0.00 66 1020.6
20260507173505 57 23 3.0 7.0 0.00 0.00 0.00 67 1020.7
20260507173006 57 318 1.0 3.0 0.00 0.00 0.00 67 1020.7
20260507172505 56 346 2.0 3.0 0.00 0.00 0.00 69 1020.7
20260507172005 56 312 2.0 3.0 0.00 0.00 0.00 68 1020.7
20260507171505 56 332 3.0 5.0 0.00 0.00 0.00 68 1020.8
20260507171005 56 353 2.0 3.0 0.00 0.00 0.00 68 1020.8
20260507170505 57 43 1.0 3.0 0.00 0.00 0.00 68 1020.8
20260507165505 56 341 2.0 5.0 0.00 0.00 0.00 69 1020.7
20260507165005 55 173 2.0 3.0 0.00 0.00 0.00 68 1020.8
20260507164505 55 310 2.0 5.0 0.00 0.00 0.00 69 1020.9
20260507164005 54 290 1.0 5.0 0.00 0.00 0.00 70 1020.9
20260507163005 54 0 2.0 3.0 0.00 0.00 0.00 70 1020.9
20260507162505 54 17 2.0 5.0 0.00 0.00 0.00 71 1020.9
20260507162005 53 0 3.0 5.0 0.00 0.00 0.00 71 1020.9
20260507161505 53 327 3.0 5.0 0.00 0.00 0.00 72 1020.9
20260507161005 53 334 2.0 5.0 0.00 0.00 0.00 72 1020.9
20260507160504 52 329 3.0 5.0 0.00 0.00 0.00 75 1021.0
20260507160005 52 8 3.0 5.0 0.00 0.00 0.00 74 1021.0
20260507155505 52 3 2.0 5.0 0.00 0.00 0.00 74 1021.1
20260507155005 52 358 4.0 7.0 0.00 0.00 0.00 74 1021.0
20260507154505 52 330 3.0 3.0 0.00 0.00 0.00 75 1021.0
20260507154006 51 345 2.0 6.0 0.00 0.00 0.00 75 1021.0
20260507153505 51 335 4.0 6.0 0.00 0.00 0.00 75 1021.1
20260507152505 51 329 2.0 5.0 0.00 0.00 0.00 76 1021.0
20260507152005 51 342 1.0 3.0 0.00 0.00 0.00 76 1021.0
20260507151505 51 321 1.0 5.0 0.00 0.00 0.00 76 1021.0
20260507151005 51 5 2.0 5.0 0.00 0.00 0.00 76 1020.9
20260507150505 51 343 1.0 3.0 0.00 0.00 0.00 76 1021.0
20260507150006 51 328 2.0 3.0 0.00 0.00 0.00 76 1021.0
20260507145506 50 357 2.0 5.0 0.00 0.00 0.00 76 1021.0
20260507144005 50 337 2.0 5.0 0.00 0.00 0.00 76 1020.9
20260507143505 50 358 2.0 5.0 0.00 0.00 0.00 76 1020.9
20260507142505 50 345 2.0 2.0 0.00 0.00 0.00 76 1020.9
20260507142005 50 315 1.0 6.0 0.00 0.00 0.00 76 1020.9
20260507141505 50 330 3.0 5.0 0.00 0.00 0.00 77 1020.9
20260507141007 50 331 2.0 5.0 0.00 0.00 0.00 77 1020.8
20260507140505 50 350 2.0 3.0 0.00 0.00 0.00 77 1020.7
20260507140006 50 336 2.0 3.0 0.00 0.00 0.00 78 1020.8
20260507135505 50 354 1.0 2.0 0.00 0.00 0.00 78 1020.7
20260507135006 50 335 1.0 5.0 0.00 0.00 0.00 77 1020.7
20260507134505 50 335 3.0 5.0 0.00 0.00 0.00 77 1020.6
20260507134005 50 329 2.0 6.0 0.00 0.00 0.00 77 1020.6
20260507133505 50 342 3.0 5.0 0.00 0.00 0.00 77 1020.6
20260507133005 50 332 3.0 5.0 0.00 0.00 0.00 77 1020.5
20260507132505 50 345 3.0 6.0 0.00 0.00 0.00 77 1020.6
20260507132005 50 327 3.0 5.0 0.00 0.00 0.00 77 1020.6
20260507131505 50 350 2.0 6.0 0.00 0.00 0.00 77 1020.5
20260507130505 50 339 2.0 5.0 0.00 0.00 0.00 77 1020.5
20260507125504 51 341 3.0 5.0 0.00 0.00 0.00 77 1020.4
20260507125005 51 335 2.0 3.0 0.00 0.00 0.00 77 1020.4
20260507124005 51 332 2.0 3.0 0.00 0.00 0.00 77 1020.4
20260507123505 51 329 1.0 2.0 0.00 0.00 0.00 77 1020.4
20260507123006 51 331 1.0 2.0 0.00 0.00 0.00 77 1020.5
20260507122505 51 328 1.0 2.0 0.00 0.00 0.00 76 1020.4
20260507122005 51 319 1.0 3.0 0.00 0.00 0.00 76 1020.5
20260507121005 51 333 1.0 3.0 0.00 0.00 0.00 76 1020.6
20260507120505 51 337 2.0 3.0 0.00 0.00 0.00 76 1020.7
20260507120005 52 330 1.0 3.0 0.00 0.00 0.00 76 1020.7
20260507115005 52 322 1.0 3.0 0.00 0.00 0.00 76 1020.7
20260507114505 52 338 1.0 3.0 0.00 0.00 0.00 76 1020.8
20260507113505 52 328 1.0 3.0 0.00 0.00 0.00 76 1020.8
20260507112505 52 316 2.0 3.0 0.00 0.00 0.00 76 1020.9
20260507111507 52 332 1.0 3.0 0.00 0.00 0.00 76 1020.9
20260507111005 52 329 1.0 5.0 0.00 0.00 0.00 76 1020.9
20260507110505 52 327 2.0 3.0 0.00 0.00 0.00 75 1020.9
20260507110005 52 336 2.0 5.0 0.00 0.00 0.00 76 1020.9
20260507105005 52 331 2.0 5.0 0.00 0.00 0.00 76 1020.9
20260507104506 52 329 2.0 5.0 0.00 0.00 0.00 76 1021.0
20260507103005 52 331 2.0 5.0 0.00 0.00 0.00 76 1021.1
20260507102505 52 330 2.0 5.0 0.00 0.00 0.00 76 1021.2
20260507102007 53 338 3.0 3.0 0.00 0.00 0.00 75 1021.3
20260507101507 53 6 3.0 8.0 0.00 0.00 0.00 76 1021.2
20260507101004 53 352 3.0 5.0 0.00 0.00 0.00 76 1021.2
20260507100504 53 336 2.0 3.0 0.00 0.00 0.00 76 1021.3
20260507100005 53 336 2.0 7.0 0.00 0.00 0.00 76 1021.2
20260507095505 53 348 2.0 5.0 0.00 0.00 0.00 76 1021.3
20260507095005 53 351 2.0 3.0 0.00 0.00 0.00 76 1021.3
20260507094505 53 338 2.0 5.0 0.00 0.00 0.00 75 1021.3
20260507094005 53 327 3.0 5.0 0.00 0.00 0.00 76 1021.3
20260507093505 53 358 2.0 5.0 0.00 0.00 0.00 76 1021.3
20260507093006 53 339 2.0 6.0 0.00 0.00 0.00 76 1021.3
20260507092505 53 337 1.0 3.0 0.00 0.00 0.00 76 1021.4
20260507092005 53 356 2.0 3.0 0.00 0.00 0.00 76 1021.4
20260507091005 53 340 1.0 2.0 0.00 0.00 0.00 76 1021.5
20260507090505 53 302 1.0 2.0 0.00 0.00 0.00 75 1021.6
20260507090006 53 345 1.0 2.0 0.00 0.00 0.00 76 1021.6
20260507085005 53 319 2.0 5.0 0.00 0.00 0.00 75 1021.6
20260507084005 53 326 2.0 2.0 0.00 0.00 0.00 75 1021.6
20260507083505 53 328 1.0 5.0 0.00 0.00 0.00 75 1021.5
20260507083006 53 330 3.0 5.0 0.00 0.00 0.00 75 1021.5
20260507082505 53 334 2.0 3.0 0.00 0.00 0.00 76 1021.6
20260507081504 53 331 3.0 5.0 0.00 0.00 0.00 76 1021.6
20260507081005 53 329 2.0 5.0 0.00 0.00 0.00 76 1021.6
20260507080504 53 347 2.0 3.0 0.00 0.00 0.00 76 1021.5
20260507080005 53 330 2.0 3.0 0.00 0.00 0.00 76 1021.5
20260507075505 54 357 2.0 3.0 0.00 0.00 0.00 76 1021.6
20260507075004 54 329 2.0 2.0 0.00 0.00 0.00 77 1021.5
20260507074504 54 343 2.0 5.0 0.00 0.00 0.00 77 1021.5
20260507074005 54 330 3.0 5.0 0.00 0.00 0.00 77 1021.5
20260507073505 54 334 3.0 6.0 0.00 0.00 0.00 77 1021.5
20260507073005 54 332 2.0 6.0 0.00 0.00 0.00 78 1021.5
20260507072504 54 332 2.0 3.0 0.00 0.00 0.00 78 1021.5
20260507072006 54 342 1.0 2.0 0.00 0.00 0.00 78 1021.5
20260507071505 54 310 2.0 3.0 0.00 0.00 0.00 79 1021.4
20260507071005 53 301 1.0 5.0 0.00 0.00 0.00 78 1021.4
20260507070010 54 333 4.0 5.0 0.00 0.00 0.00 79 1021.4
20260507065005 54 337 3.0 5.0 0.00 0.00 0.00 80 1021.3
20260507064505 54 344 2.0 5.0 0.00 0.00 0.00 80 1021.3
20260507064005 54 328 3.0 5.0 0.00 0.00 0.00 80 1021.3
20260507063505 54 349 3.0 5.0 0.00 0.00 0.00 80 1021.3
20260507063005 54 334 3.0 6.0 0.00 0.00 0.00 80 1021.4
20260507062005 54 330 3.0 6.0 0.00 0.00 0.00 80 1021.4
20260507061505 54 331 3.0 6.0 0.00 0.00 0.00 81 1021.5
20260507061005 54 331 3.0 6.0 0.00 0.00 0.00 81 1021.5
20260507060505 54 339 3.0 6.0 0.00 0.00 0.00 81 1021.4
20260507060005 54 332 3.0 7.0 0.00 0.00 0.00 81 1021.5
20260507055504 54 333 3.0 7.0 0.00 0.00 0.00 81 1021.4
20260507054505 54 332 4.0 7.0 0.00 0.00 0.00 81 1021.3
20260507054004 54 340 5.0 7.0 0.00 0.00 0.00 81 1021.3
20260507053505 54 333 5.0 8.0 0.00 0.00 0.00 81 1021.3
20260507053005 54 329 4.0 7.0 0.00 0.00 0.00 81 1021.2
20260507052505 54 335 3.0 7.0 0.00 0.00 0.00 81 1021.2
20260507052005 54 348 4.0 8.0 0.00 0.00 0.00 81 1021.2
20260507051505 54 344 3.0 6.0 0.00 0.00 0.00 81 1021.2
20260507051005 55 7 5.0 7.0 0.00 0.00 0.00 81 1021.2